Location: Piedmont
(45.8748°N, 74.1254°W)
Time: 00:36:27
(UTC+00:00)

N. Korean satellite - Pass Details

Date: 05 December 2021
Orbit: 447 x 491 km, 97.3° (Epoch: 21 January)

Event Time Altitude Azimuth Distance (km) Brightness Sun altitude
Rises 09:04:53 0° 35° (NE) 2,462 10.6 -33.5°
Maximum altitude 09:09:18 11° 90° (E) 1,526 9.9 -32.7°
Drops below altitude 10° 09:10:12 10° 105° (ESE) 1,574 9.9 -32.5°
Sets 09:13:40 0° 145° (SE) 2,439 10.6 -31.9°
